Wetbulb
54.00 54.14 54.30 54.40 54.42 54.35 54.47 54.63 54.66 54.69 55.07 55.21 55.46 55.54 55.64 55.55 55.25 56.59 52.37 53.39 55.72 60.32 59.65 53.48 54.46 54.55 58.91 57.32 59.49 60.20 53.07 50.71 51.54 51.43 51.80 54.63 53.81 56.12 58.32 56.94 58.87 63.15 64.35 65.60 68.01
53.86 54.05 54.19 54.11 54.25 54.28 54.41 54.60 54.84 55.08 55.19 55.74 55.89 55.70 55.33 55.23 55.10 52.77 56.07 56.66 57.35 58.89 54.87 51.75 51.10 53.02 54.31 56.45 57.79 56.08 53.04 52.69 55.26 55.29 54.12 54.59 54.59 55.20 55.60 56.78 58.02 62.00 63.57 64.61 67.44
53.52 53.72 53.80 53.98 54.18 54.15 54.30 54.65 55.10 55.33 55.49 55.53 55.52 55.52 55.40 55.78 53.42 52.97 57.98 56.09 57.31 58.08 54.71 54.65 53.50 51.97 50.58 54.90 55.45 56.41 53.46 56.00 56.48 57.13 56.99 54.69 54.58 56.34 54.76 55.00 58.46 59.85 62.69 64.02 64.54
53.47 53.66 53.72 53.71 53.79 54.03 54.20 54.74 55.27 55.72 55.62 55.47 55.28 55.50 55.35 56.07 43.68 54.08 60.70 57.97 58.27 58.04 53.77 53.33 52.30 49.95 48.96 49.19 54.32 52.36 55.70 56.54 56.37 57.51 57.75 55.55 55.68 54.80 55.90 56.10 59.79 62.03 63.89 64.10 63.60
53.12 53.23 53.25 53.30 53.54 53.81 54.17 54.68 55.16 55.57 55.48 55.43 55.64 55.43 55.68 51.33 49.23 55.59 56.33 59.25 57.62 54.27 51.27 49.90 51.12 51.03 48.18 49.81 51.63 51.67 53.74 55.88 56.94 56.83 57.45 57.96 55.90 55.98 56.28 58.33 59.43 60.10 62.77 62.75 63.13
52.88 52.88 52.84 53.07 53.29 53.62 54.15 54.77 54.96 54.91 55.22 55.81 56.46 55.05 54.91 47.21 53.97 55.65 55.60 55.41 55.24 54.18 52.58 51.06 48.65 51.55 50.47 50.46 49.78 52.03 52.87 53.41 55.10 56.02 57.11 56.06 55.92 56.51 58.55 60.01 59.53 59.10 59.37 61.40 62.48
52.79 52.68 52.79 52.66 53.04 53.36 54.35 54.71 54.65 54.59 55.50 56.70 55.83 56.39 53.49 48.52 54.74 55.85 56.09 54.54 55.14 53.77 51.31 53.22 52.12 48.83 50.86 49.30 52.51 51.38 48.28 50.36 51.97 54.05 54.27 56.67 53.12 53.52 58.18 59.57 59.60 60.20 60.85 61.96 63.36
52.72 52.55 52.36 52.35 52.91 53.24 53.61 54.07 54.18 54.70 56.31 57.11 55.47 57.08 50.33 53.99 55.71 53.70 54.43 53.82 54.76 54.99 53.94 54.24 53.60 50.32 48.37 49.13 48.30 47.30 48.69 44.71 49.67 51.79 53.08 53.44 49.18 55.03 57.84 57.46 57.86 59.05 59.98 60.84 62.80
52.61 52.49 51.82 52.10 52.68 52.97 53.29 53.56 54.58 55.52 56.18 55.81 55.95 54.20 48.51 55.01 51.00 52.78 53.52 51.00 52.11 53.24 53.39 53.52 52.18 48.55 48.11 43.47 41.61 43.87 41.83 44.83 46.58 51.22 51.07 50.51 49.77 54.79 57.49 57.57 57.54 58.59 59.59 60.04 61.15
52.67 52.45 52.16 51.95 52.45 52.90 53.03 52.57 56.14 55.67 56.70 57.75 55.28 50.58 51.21 47.02 50.84 51.72 53.69 52.14 49.77 50.55 50.01 49.60 48.91 45.84 45.70 42.91 36.68 39.73 41.16 43.64 44.64 48.78 50.10 48.88 49.21 52.62 55.20 55.62 56.83 58.07 59.23 60.06 60.86
52.43 52.45 52.18 52.11 52.26 52.47 53.30 56.32 52.97 52.08 52.95 48.00 48.02 47.15 48.03 51.10 52.29 50.47 51.48 49.94 50.31 48.79 44.47 47.35 44.16 41.95 44.18 45.14 44.76 43.58 41.72 41.51 45.45 49.00 48.26 47.82 49.28 50.84 53.69 54.27 55.13 56.77 58.37 59.46 60.71
52.34 51.65 51.78 51.57 52.26 52.27 53.93 51.46 50.58 51.92 45.22 50.52 49.41 48.77 49.85 50.84 46.34 48.76 51.20 46.42 46.24 42.71 45.09 43.42 40.93 44.87 45.66 44.93 42.95 42.02 40.86 41.03 44.06 46.72 47.95 48.18 47.70 50.63 52.90 53.75 54.82 55.53 56.89 58.41 59.43
52.41 51.65 51.57 51.78 52.07 53.02 53.53 52.05 55.67 54.80 46.34 46.84 48.38 47.59 47.96 49.10 46.18 46.74 48.87 47.23 44.21 42.01 42.37 40.42 42.37 44.95 43.46 42.41 41.11 41.20 39.86 40.33 41.03 44.94 47.30 47.16 45.23 48.05 51.54 53.58 54.93 55.82 56.86 57.93 58.63
52.14 51.96 51.94 51.62 50.13 55.31 53.60 55.16 56.24 54.96 42.70 42.64 44.72 47.36 48.06 48.60 45.26 49.26 49.41 46.87 44.45 41.36 42.42 41.77 44.22 42.47 41.78 40.60 41.87 38.22 43.02 41.92 41.17 40.02 37.20 46.36 38.35 46.18 49.26 50.92 52.61 54.43 55.80 56.63 57.62
52.10 52.08 51.34 49.52 54.99 53.30 54.14 56.89 56.22 53.46 34.06 42.72 44.38 50.90 48.64 45.61 46.14 46.40 49.67 47.37 42.21 41.95 42.42 40.08 41.31 40.89 40.22 41.11 42.86 40.20 43.82 42.09 41.63 39.94 39.62 40.55 40.08 44.12 49.47 48.37 50.97 53.56 54.88 56.44 57.44
51.99 51.56 50.88 52.28 55.78 55.37 56.80 56.53 53.61 41.46 31.76 39.97 44.23 43.46 44.04 46.18 45.07 46.67 46.58 48.85 47.50 42.80 43.53 42.80 46.49 44.50 42.48 44.00 43.73 45.13 42.38 42.13 41.25 39.67 33.46 39.20 39.52 41.21 45.21 48.67 50.86 53.22 54.56 55.87 56.99
51.85 50.89 51.62 55.95 53.74 56.71 56.69 52.57 40.82 35.88 42.83 39.61 40.63 43.51 43.21 42.57 42.69 43.07 42.93 42.42 40.04 36.81 37.10 40.32 40.98 43.13 45.47 41.61 44.43 42.87 39.89 31.64 29.48 30.98 31.18 40.21 39.18 41.91 47.94 50.05 51.09 51.86 53.77 55.82 56.33
50.68 49.64 53.24 57.06 57.89 57.00 54.49 46.44 35.52 39.34 39.93 44.11 42.86 42.83 40.88 41.78 41.86 42.18 41.96 40.22 42.76 41.10 38.13 34.27 31.87 39.46 43.54 41.64 39.72 39.71 37.47 32.56 24.01 27.51 32.92 39.74 34.11 41.30 49.16 51.70 52.02 52.80 53.18 54.75 55.64
49.34 56.26 56.34 58.04 57.83 55.94 48.90 39.69 39.67 40.50 41.77 40.88 42.19 39.93 39.90 41.45 41.88 41.56 41.15 40.10 41.05 42.64 36.04 34.35 33.86 43.00 43.46 44.48 43.08 39.74 37.06 42.34 34.46 35.49 31.07 34.77 40.33 44.90 49.20 49.64 50.89 51.54 52.95 54.29 55.36
51.84 54.15 54.98 56.45 58.26 52.90 46.02 39.37 40.99 43.22 43.43 42.84 37.58 39.82 37.06 39.40 39.15 39.99 39.85 41.78 40.27 43.29 44.73 39.66 32.55 40.95 42.42 44.87 44.83 41.95 44.00 33.59 35.73 25.59 24.63 33.72 35.89 39.52 44.19 46.94 49.89 51.07 52.41 54.08 56.03
52.11 49.11 53.75 55.96 55.13 49.03 41.16 40.84 41.78 44.32 44.29 41.10 39.92 38.71 39.53 38.71 39.81 39.03 39.02 41.54 42.77 42.83 44.04 41.97 37.71 37.49 40.95 39.79 39.20 38.03 38.24 37.05 38.17 35.20 27.88 26.85 33.97 44.72 46.47 48.09 49.57 51.77 53.28 53.87 54.71
51.21 45.64 54.38 52.99 45.37 46.29 41.68 41.00 40.64 43.17 45.33 43.28 43.07 41.47 38.56 39.61 37.79 38.74 37.69 40.19 44.72 44.13 39.11 42.21 38.71 33.99 36.38 42.53 43.39 42.87 41.00 38.99 32.19 31.78 36.17 34.48 33.95 45.94 46.60 50.40 51.61 52.43 52.75 53.75 54.62
46.79 47.81 54.08 52.54 41.15 41.90 43.27 41.81 42.44 42.54 43.30 41.67 40.53 42.44 42.51 38.32 35.32 39.65 40.20 43.95 44.74 42.82 39.54 41.62 37.31 31.03 34.00 37.37 41.26 37.90 40.28 41.17 40.21 38.89 33.64 29.32 33.95 46.21 50.95 51.24 52.05 51.40 51.79 52.60 53.71
47.60 43.23 48.54 50.68 47.88 41.71 41.24 40.96 40.03 43.73 42.74 43.38 42.22 43.80 41.28 38.78 41.19 38.20 39.02 42.50 44.14 43.09 44.41 42.83 38.15 32.83 30.38 33.41 34.86 33.63 38.70 40.32 38.15 31.06 34.65 35.02 37.08 40.41 43.42 48.26 49.93 50.33 51.69 52.89 52.64
48.43 45.19 45.13 41.20 42.58 42.82 43.70 42.83 39.09 39.42 43.23 44.38 41.59 40.76 39.70 35.68 37.76 37.32 39.91 41.01 42.78 44.51 43.44 41.04 35.83 37.56 38.69 38.78 38.84 38.21 38.22 38.96 37.97 38.93 35.37 37.70 36.95 40.89 43.59 45.22 49.44 50.35 50.99 50.69 51.77
43.23 42.69 45.11 42.23 44.01 42.52 41.06 40.86 38.94 40.02 40.67 39.68 40.35 41.51 41.45 36.14 36.35 35.04 37.89 39.62 38.17 43.38 41.68 43.49 35.06 37.83 35.07 38.86 39.04 36.89 39.47 39.64 39.51 39.63 38.92 39.96 38.88 44.82 46.62 48.21 48.49 49.15 49.83 50.07 51.03
45.24 45.86 43.11 40.08 42.52 41.67 41.53 41.03 40.14 41.16 41.61 43.08 41.14 41.05 40.39 41.90 43.34 43.23 44.71 44.94 43.02 40.10 39.93 37.97 37.50 35.15 30.87 36.10 36.06 32.03 37.75 39.33 40.11 41.38 40.25 36.59 41.94 45.95 45.69 46.71 48.10 49.31 49.98 50.43 51.83
MSLP
1021.44 1021.03 1020.67 1020.31 1019.92 1019.51 1019.15 1018.75 1018.30 1017.88 1017.50 1017.11 1016.75 1016.35 1015.98 1015.61 1014.89 1012.65 1011.83 1012.52 1012.17 1012.01 1011.98 1010.64 1009.48 1008.78 1008.30 1007.11 1006.25 1005.63 1004.46 1002.28 1001.28 1000.41 999.86 1000.01 999.49 999.21 999.01 998.31 998.06 997.91 997.88 998.54 998.72
1021.46 1021.05 1020.66 1020.25 1019.82 1019.37 1018.97 1018.55 1018.17 1017.76 1017.37 1016.97 1016.48 1016.01 1015.69 1015.38 1013.94 1011.55 1012.64 1012.47 1012.28 1012.18 1010.97 1009.68 1008.52 1007.88 1007.06 1006.34 1005.76 1005.09 1003.04 1001.63 1001.24 1000.61 999.80 999.64 999.77 999.12 998.38 998.03 998.27 998.06 998.39 998.85 998.74
1021.42 1021.00 1020.57 1020.09 1019.60 1019.14 1018.77 1018.36 1017.95 1017.53 1017.22 1016.87 1016.35 1015.80 1015.46 1015.21 1012.54 1010.68 1012.31 1012.65 1012.54 1012.24 1010.61 1009.46 1008.62 1007.39 1006.50 1005.73 1004.55 1003.95 1001.98 1001.58 1000.66 1000.72 1000.30 1000.34 1000.20 999.66 998.52 997.62 997.71 997.72 998.23 998.82 998.67
1021.38 1020.91 1020.45 1019.99 1019.50 1019.02 1018.61 1018.18 1017.70 1017.19 1016.87 1016.55 1016.14 1015.78 1015.26 1014.17 1010.89 1011.21 1012.43 1012.51 1012.20 1011.54 1010.11 1008.88 1007.97 1007.01 1005.78 1004.42 1004.27 1003.22 1002.24 1001.88 1001.42 1000.81 1000.18 1000.22 1000.91 1000.08 999.28 998.11 997.70 997.41 997.86 998.17 998.97
1021.37 1020.91 1020.47 1020.02 1019.50 1018.98 1018.50 1018.02 1017.54 1017.03 1016.55 1016.10 1015.71 1015.50 1014.63 1011.84 1010.54 1011.37 1011.86 1011.41 1010.64 1009.94 1009.19 1008.27 1007.47 1006.28 1005.02 1004.39 1003.76 1002.10 1001.78 1001.38 1001.12 1000.92 1000.84 1000.88 1000.31 1000.27 999.48 998.94 998.32 997.85 997.73 998.46 999.14
1021.31 1020.82 1020.34 1019.84 1019.37 1018.84 1018.38 1017.85 1017.30 1016.82 1016.35 1015.89 1015.44 1015.31 1013.64 1010.57 1010.75 1010.58 1010.55 1010.27 1009.64 1009.48 1008.75 1008.32 1007.48 1006.70 1005.38 1004.18 1003.26 1002.27 1001.49 1000.97 1000.58 1000.23 1000.34 1000.26 1000.10 1001.01 999.35 999.43 998.63 998.13 998.03 998.30 998.75
1021.20 1020.69 1020.14 1019.60 1019.07 1018.52 1017.94 1017.44 1017.03 1016.63 1016.14 1015.71 1015.49 1014.70 1011.90 1010.71 1010.64 1010.21 1009.84 1009.56 1009.65 1009.62 1009.04 1008.27 1008.01 1007.44 1006.02 1005.03 1004.37 1003.32 1002.11 1001.06 999.92 999.69 999.70 1000.13 999.39 999.27 999.33 999.37 998.71 998.28 998.07 998.44 998.56
1021.10 1020.60 1020.01 1019.42 1018.84 1018.25 1017.63 1017.02 1016.40 1015.89 1015.54 1015.34 1015.32 1013.68 1010.56 1010.52 1010.25 1009.55 1009.54 1009.26 1008.98 1009.15 1009.25 1009.11 1008.65 1007.80 1006.72 1005.90 1004.58 1003.55 1002.05 1000.21 998.68 999.63 999.09 999.87 997.60 997.56 998.66 998.76 998.50 998.34 997.95 997.59 997.89
1020.91 1020.36 1019.78 1019.14 1018.46 1017.81 1017.13 1016.48 1015.89 1015.42 1015.26 1015.18 1014.64 1012.52 1009.57 1010.37 1009.82 1009.78 1009.38 1008.97 1008.88 1008.49 1008.31 1008.79 1008.57 1007.45 1006.41 1005.54 1004.45 1003.12 1000.78 999.50 998.51 998.60 998.71 998.97 997.00 996.92 997.65 997.53 997.41 997.39 997.24 997.18 997.22
1020.71 1020.18 1019.61 1018.94 1018.21 1017.49 1016.65 1015.88 1015.40 1015.41 1014.83 1013.90 1012.62 1011.83 1009.85 1009.77 1009.95 1009.79 1009.24 1009.19 1008.73 1008.44 1007.88 1007.54 1007.28 1006.42 1005.37 1004.68 1002.48 1001.61 1000.60 999.64 998.41 998.07 997.43 997.45 996.35 996.22 996.66 997.03 997.02 996.81 996.06 996.00 996.01
1020.45 1019.89 1019.32 1018.69 1018.06 1017.27 1016.17 1014.11 1014.60 1013.84 1012.36 1011.40 1010.96 1010.53 1009.92 1010.09 1009.90 1009.30 1008.95 1008.88 1008.28 1007.93 1006.82 1006.31 1005.92 1004.88 1004.06 1003.59 1003.04 1002.44 1001.45 999.66 998.26 997.57 997.33 996.55 995.32 994.95 995.68 996.53 996.79 996.04 995.60 995.72 995.61
1020.38 1019.64 1018.99 1018.40 1017.80 1017.03 1016.21 1013.66 1013.98 1013.90 1012.38 1010.99 1010.80 1010.61 1010.43 1010.29 1009.67 1008.70 1008.88 1008.66 1008.05 1007.42 1006.77 1006.09 1004.96 1004.85 1004.75 1004.38 1004.04 1003.38 1002.13 1000.53 999.82 998.85 997.99 996.30 995.32 994.68 994.71 994.84 995.43 995.67 995.44 995.04 995.20
1020.21 1019.42 1018.66 1018.01 1017.53 1016.53 1014.30 1013.96 1013.76 1013.63 1012.25 1010.14 1010.18 1009.80 1009.57 1009.86 1008.98 1008.74 1009.00 1008.46 1008.02 1007.33 1006.50 1005.74 1005.10 1004.84 1004.54 1004.42 1004.12 1003.49 1002.68 1001.94 1000.90 1000.00 998.96 997.57 996.09 995.48 994.58 994.30 994.46 994.54 994.85 994.96 994.89
1019.85 1019.12 1018.36 1017.68 1017.47 1014.09 1013.37 1014.01 1013.62 1013.78 1011.29 1009.90 1009.52 1009.16 1009.42 1009.06 1008.11 1008.80 1008.56 1008.85 1008.13 1007.19 1006.60 1005.83 1005.32 1005.02 1004.44 1004.11 1003.89 1003.03 1003.05 1002.41 1001.68 1001.24 999.24 998.26 995.36 994.95 994.76 993.90 994.06 994.01 993.94 994.14 994.58
1019.33 1018.54 1017.96 1017.86 1015.59 1013.44 1014.08 1013.83 1013.76 1013.66 1010.07 1009.71 1008.85 1009.30 1009.10 1008.78 1008.30 1007.93 1008.34 1008.25 1007.56 1007.14 1006.87 1005.65 1005.05 1004.50 1004.05 1003.73 1003.63 1003.09 1002.95 1002.61 1002.00 1001.11 1000.26 998.72 996.37 994.18 993.95 993.23 993.10 993.21 993.40 993.71 994.05
1018.97 1018.18 1017.63 1016.90 1015.42 1014.12 1014.01 1014.18 1013.82 1012.03 1009.37 1008.92 1009.02 1008.66 1008.22 1007.83 1007.61 1007.69 1007.58 1007.29 1006.70 1006.28 1005.90 1005.34 1005.60 1004.85 1004.38 1004.49 1003.94 1003.82 1003.40 1002.89 1002.16 1001.11 999.24 998.10 996.62 993.87 993.38 992.63 992.27 992.29 992.29 992.51 992.78
1018.64 1017.97 1017.48 1015.41 1013.97 1014.13 1014.14 1013.46 1012.03 1009.91 1009.77 1008.86 1008.75 1008.60 1008.27 1007.40 1007.53 1007.35 1007.22 1006.38 1005.68 1005.72 1005.64 1005.60 1005.18 1005.36 1005.48 1004.33 1003.88 1004.05 1003.53 1002.60 1001.54 1000.37 998.29 998.29 996.18 994.45 993.60 993.16 992.50 992.04 991.71 991.67 991.98
1018.12 1017.73 1016.29 1014.88 1014.45 1014.37 1013.89 1012.36 1010.70 1009.97 1009.44 1009.65 1009.43 1008.88 1007.66 1007.93 1007.49 1007.37 1006.79 1005.78 1005.73 1006.29 1006.27 1006.38 1005.87 1006.19 1005.07 1004.92 1004.81 1004.40 1004.39 1002.46 1001.30 1000.05 998.22 997.48 995.67 993.67 993.40 992.60 992.12 991.87 991.97 992.10 992.35
1017.36 1015.97 1014.64 1014.41 1014.73 1014.47 1013.40 1011.08 1009.94 1010.08 1010.58 1010.51 1009.83 1008.27 1007.50 1007.37 1007.24 1007.11 1006.33 1006.20 1006.56 1006.98 1007.27 1007.17 1006.46 1005.89 1004.98 1005.14 1005.63 1004.08 1002.54 1002.20 1001.82 1000.93 999.94 999.05 995.92 993.98 992.49 992.31 992.30 992.22 992.24 992.50 992.60
1017.48 1014.77 1013.53 1014.52 1014.61 1014.35 1012.73 1011.28 1010.69 1011.08 1011.44 1011.15 1010.26 1009.43 1008.70 1008.21 1008.11 1007.51 1006.83 1006.77 1007.08 1007.44 1007.80 1007.99 1007.03 1006.24 1004.85 1005.51 1004.60 1004.30 1003.57 1003.09 1002.39 1001.84 1000.30 997.70 995.12 992.22 992.28 991.90 991.80 991.83 992.13 992.80 993.35
1017.07 1014.25 1014.55 1014.53 1014.38 1013.44 1012.59 1011.26 1011.43 1011.69 1012.08 1011.70 1010.94 1010.59 1009.89 1009.38 1009.11 1008.33 1007.67 1007.27 1008.10 1007.94 1008.21 1008.16 1008.17 1005.96 1004.64 1003.75 1003.41 1003.77 1003.30 1003.70 1003.29 1002.54 1001.11 998.87 994.98 993.04 990.76 991.53 991.82 991.68 992.68 993.27 993.32
1016.34 1013.89 1014.51 1014.56 1013.77 1013.08 1012.41 1012.52 1013.13 1011.99 1012.05 1011.96 1011.66 1011.32 1011.07 1010.63 1010.24 1009.36 1008.52 1008.28 1008.78 1008.66 1008.74 1008.68 1008.48 1006.41 1004.38 1002.79 1003.35 1003.47 1002.30 1002.38 1002.77 1001.72 1000.49 999.04 996.59 994.59 993.26 989.70 991.15 992.24 993.43 993.72 993.73
1016.75 1014.68 1014.30 1014.49 1013.75 1012.97 1012.55 1012.44 1012.61 1012.34 1011.89 1011.98 1011.79 1011.79 1011.72 1011.51 1011.12 1010.10 1009.46 1009.20 1009.35 1009.28 1009.74 1009.81 1008.41 1006.87 1004.28 1003.88 1004.04 1004.09 1003.34 1002.07 1002.47 1002.66 1001.11 1000.39 997.07 995.82 992.87 991.95 992.27 992.92 993.46 993.80 993.83
1017.22 1014.97 1013.74 1013.86 1014.23 1014.11 1013.14 1012.45 1012.16 1012.37 1012.46 1012.16 1011.96 1011.55 1011.43 1011.29 1010.85 1010.20 1009.49 1009.45 1009.69 1009.76 1009.98 1010.28 1009.05 1008.03 1006.03 1004.35 1005.11 1004.70 1003.07 1002.04 1002.37 1002.14 1000.58 998.70 998.14 997.83 995.67 993.06 993.38 993.68 993.79 994.19 994.02
1017.69 1016.26 1016.47 1014.61 1014.38 1014.51 1013.94 1013.12 1012.66 1012.12 1012.22 1012.23 1011.62 1011.57 1011.52 1011.39 1010.96 1010.30 1009.85 1009.79 1009.62 1009.27 1009.08 1009.45 1008.35 1007.35 1005.74 1004.31 1003.45 1002.25 1001.49 1001.18 1000.72 1000.10 999.00 998.03 998.28 998.35 997.73 996.08 993.99 994.08 994.58 994.48 993.64
1019.72 1018.68 1017.36 1016.50 1015.36 1014.71 1013.82 1013.11 1012.99 1012.73 1012.74 1012.45 1011.84 1011.64 1011.73 1011.64 1011.74 1010.80 1010.39 1009.81 1009.81 1009.06 1008.98 1009.03 1008.10 1007.30 1005.67 1004.73 1003.48 1001.94 1000.85 1000.53 1000.20 999.74 998.36 998.21 996.84 996.66 996.76 996.08 994.97 994.67 994.57 994.25 994.17
1021.68 1020.94 1020.15 1017.73 1015.52 1014.55 1014.00 1013.75 1014.00 1014.22 1013.31 1012.39 1012.17 1011.75 1011.03 1010.54 1010.34 1010.07 1009.30 1008.64 1008.86 1009.22 1009.27 1009.74 1008.83 1007.80 1006.00 1005.56 1004.57 1002.50 1000.81 1000.10 999.72 999.24 998.86 997.39 996.33 995.72 995.12 994.80 994.44 994.28 994.24 994.15 994.21
Wind_Speed
16 16 16 16 16 16 16 16 15 15 16 16 16 16 17 17 21 21 13 8 9 11 14 15 15 14 15 21 22 19 18 19 25 22 19 12 19 21 16 17 15 9 14 7 5
16 16 16 16 16 16 16 16 16 15 15 16 17 16 16 16 19 13 8 6 6 10 12 14 16 15 15 18 20 23 19 27 23 19 15 11 16 19 18 15 18 16 1 2 8
17 17 17 17 18 17 17 17 16 16 16 15 16 16 17 15 17 8 7 2 7 14 17 11 14 18 23 21 23 26 28 25 23 23 19 16 20 18 22 17 19 17 15 10 3
17 18 18 18 18 18 18 18 18 18 17 15 14 14 15 15 2 10 8 6 12 14 14 12 13 19 24 26 25 29 33 28 27 28 21 17 18 22 24 21 19 17 17 15 7
18 18 18 18 18 18 18 18 18 17 18 16 14 12 13 8 10 10 7 11 14 8 8 12 14 15 25 25 26 33 31 29 28 26 24 25 22 24 24 24 23 21 11 12 11
18 18 19 19 18 18 17 16 16 16 16 15 13 12 11 4 4 4 6 8 6 10 10 8 12 15 22 24 28 28 29 32 29 29 28 27 28 19 29 24 26 24 22 18 18
18 19 19 19 19 20 19 17 15 15 14 12 9 11 12 9 3 5 7 6 4 7 9 12 10 16 12 17 25 26 30 28 29 30 33 28 27 31 30 26 26 26 22 21 23
18 18 19 19 19 19 20 19 19 15 11 8 7 12 6 3 7 6 9 8 2 6 10 11 12 17 21 21 26 23 22 27 33 29 29 24 35 37 28 26 29 29 26 22 24
19 19 20 20 20 20 20 21 17 5 4 6 9 8 3 7 5 12 10 9 11 11 5 8 14 15 15 18 19 22 25 30 31 30 29 30 36 32 32 29 27 29 26 25 25
21 20 20 21 22 21 22 22 4 7 9 10 8 9 6 7 11 12 6 10 13 13 14 15 13 14 14 14 21 22 28 30 30 28 28 30 37 32 29 27 26 31 25 25 25
24 22 20 20 21 20 18 7 8 9 11 11 10 8 7 9 9 6 4 9 10 12 15 9 14 14 17 16 20 23 27 33 30 24 29 29 31 34 30 26 28 26 25 27 24
25 25 23 21 20 21 13 6 7 7 10 12 9 8 6 6 9 9 5 14 10 14 17 15 16 16 18 16 18 22 26 29 28 30 27 25 28 32 26 29 27 28 28 24 20
23 23 22 19 17 12 6 6 7 7 9 1 7 7 6 5 11 14 8 11 13 17 16 16 19 18 17 16 19 19 21 24 29 25 26 27 29 31 30 27 24 27 28 28 27
22 22 19 16 8 3 2 5 8 4 8 10 7 3 7 8 16 3 7 8 14 18 18 17 18 21 16 19 19 21 20 23 22 24 22 29 23 26 29 28 25 27 25 23 20
23 23 16 7 11 4 7 8 7 6 6 5 4 6 8 9 10 3 3 13 17 19 17 18 20 20 20 21 19 21 19 22 24 24 27 30 24 22 21 27 26 26 25 26 27
24 21 10 7 8 6 6 5 6 9 2 3 2 6 10 12 5 9 11 14 18 19 17 20 15 20 15 23 19 22 21 26 25 21 23 29 28 25 23 20 15 17 18 20 20
26 18 7 8 6 6 7 7 8 7 6 2 8 11 14 11 11 4 13 13 10 12 14 19 16 4 15 14 15 17 23 15 18 19 20 27 28 21 22 25 29 16 23 18 8
28 16 8 5 6 6 7 11 10 6 8 10 10 17 15 6 8 7 13 13 9 7 12 12 17 2 6 12 16 26 21 17 20 17 19 27 28 22 29 25 6 6 3 8 9
31 7 8 4 5 6 10 9 2 9 8 11 15 11 9 6 9 13 11 13 5 10 9 13 13 21 23 7 8 15 21 22 21 26 18 15 27 30 24 20 21 19 14 11 4
9 6 3 4 3 7 9 9 7 3 8 10 14 6 13 16 13 13 13 7 8 9 9 13 22 19 19 10 18 20 14 13 15 21 19 21 23 19 30 24 17 16 8 4 3
6 6 7 5 5 8 4 7 7 6 8 8 12 16 15 14 14 17 16 15 6 16 14 18 10 19 19 14 15 8 19 12 14 8 10 14 16 15 26 29 18 13 7 4 5
6 5 5 4 5 3 6 7 3 7 4 7 8 11 10 12 15 17 19 11 16 12 18 16 9 15 21 23 6 13 16 9 13 14 18 17 16 25 32 8 32 13 6 2 7
7 6 5 3 3 6 8 10 3 8 8 6 7 12 13 14 10 11 17 14 15 14 6 9 6 12 15 4 12 11 19 8 7 12 18 13 14 11 10 16 14 7 4 4 11
6 5 1 1 1 6 10 9 7 2 9 7 9 15 11 13 14 10 17 10 13 16 17 11 14 15 16 21 7 8 17 14 12 7 21 19 19 13 29 14 10 3 6 9 13
5 3 4 5 6 11 12 11 11 10 2 9 7 5 10 12 20 19 13 22 19 18 12 5 15 18 22 23 20 19 17 16 17 20 21 21 19 18 13 23 20 11 10 13 11
6 6 7 11 8 9 6 7 8 9 11 15 16 13 15 13 16 25 23 20 11 13 8 11 15 17 20 21 21 22 20 18 20 21 25 22 24 21 17 20 18 13 14 11 11
3 2 4 9 7 8 6 7 11 15 11 9 8 15 18 18 16 19 22 22 17 12 16 9 12 14 14 10 16 16 16 16 15 18 18 22 22 21 17 15 13 13 13 11 10
Wind_Direction
346 341 339 337 336 334 331 326 322 319 316 316 314 316 317 317 303 273 247 23 350 334 310 273 255 250 222 242 235 234 249 249 252 253 253 239 248 246 256 257 284 246 250 30 89
341 339 337 336 335 332 328 324 320 316 314 313 312 312 311 316 301 270 86 40 332 306 279 251 245 229 231 230 230 228 239 241 254 266 282 268 265 266 241 224 238 214 173 203 175
340 338 336 335 334 331 327 323 320 314 312 311 307 307 305 305 275 88 132 240 293 294 286 274 270 259 233 235 228 229 242 248 248 245 256 258 264 268 267 240 217 228 187 195 140
339 337 336 335 332 328 325 322 319 316 314 312 307 301 298 280 351 72 174 279 276 275 271 258 242 242 242 237 234 242 242 244 255 274 275 244 257 264 268 259 257 231 215 174 176
340 337 335 333 330 326 323 320 317 313 312 310 308 306 289 217 53 121 211 229 261 282 271 268 260 251 247 246 247 240 248 249 250 250 254 267 244 256 256 256 265 260 244 211 233
340 338 336 332 330 324 321 317 314 310 303 297 301 305 256 249 346 335 317 291 273 310 319 279 272 270 274 264 251 257 252 251 253 253 248 241 249 252 253 257 256 248 251 243 238
338 337 334 332 329 325 321 318 311 300 286 272 271 268 268 58 294 306 273 324 313 303 291 308 305 269 274 255 251 264 266 268 261 244 248 251 247 237 248 253 248 253 243 244 251
339 336 334 330 326 321 319 316 312 296 270 237 238 263 289 89 334 332 319 316 271 248 270 281 285 279 267 266 275 281 261 250 244 247 248 240 250 247 242 243 246 247 251 239 237
338 336 334 330 326 321 317 311 311 235 203 215 232 241 162 139 337 338 322 323 315 297 274 268 277 276 264 247 253 245 251 245 253 241 239 237 248 248 251 251 246 239 240 241 243
338 335 331 329 325 320 314 297 229 186 204 213 257 246 205 356 342 310 298 315 305 304 287 239 259 251 241 236 249 253 243 246 255 258 233 235 241 245 248 250 253 257 251 234 237
339 334 331 327 321 314 315 221 215 196 229 299 320 291 293 338 311 310 321 293 276 273 273 283 268 254 280 282 272 275 274 278 275 264 243 260 240 243 239 237 252 259 238 245 246
337 335 329 324 316 310 293 359 42 336 298 281 245 263 271 310 294 324 284 306 302 297 300 275 250 256 259 276 291 284 279 271 271 269 274 265 256 261 248 238 233 242 250 255 243
333 333 325 317 314 286 306 33 338 328 263 113 219 262 280 251 294 297 296 298 289 297 292 291 292 299 288 264 260 268 268 275 280 286 267 260 262 267 259 248 244 243 246 250 249
331 331 323 314 289 343 188 355 308 347 269 130 198 174 242 285 269 307 284 286 286 292 296 292 290 282 282 272 268 271 273 277 270 264 260 252 260 245 244 250 243 245 241 246 252
334 333 328 270 322 283 10 328 336 233 262 115 144 51 255 265 303 149 215 272 282 294 286 291 290 280 266 280 284 284 287 282 275 264 256 256 255 251 244 237 235 236 242 241 239
334 334 330 191 233 15 322 344 242 233 43 169 265 266 295 302 277 264 275 268 261 258 273 277 344 285 283 306 288 293 284 275 267 259 247 245 248 244 240 253 254 257 256 247 243
332 329 275 307 353 342 316 247 240 293 123 57 331 314 310 292 307 302 310 297 302 310 310 314 284 260 271 310 284 267 264 261 248 239 251 246 247 242 250 249 255 272 244 233 236
325 319 191 292 315 318 275 252 270 349 325 355 318 301 269 355 312 282 292 296 328 311 310 307 309 34 305 288 312 292 262 258 257 258 250 230 246 246 235 243 194 276 334 263 225
313 207 229 106 313 298 271 268 294 351 358 327 309 305 327 305 315 304 303 306 326 320 305 304 295 312 300 300 296 310 245 252 262 263 273 271 283 231 250 213 242 249 237 213 240
309 264 126 355 308 278 260 286 295 12 311 309 300 313 321 321 331 316 316 333 308 327 318 308 295 297 285 259 258 234 262 257 248 256 274 257 247 240 216 239 220 226 156 166 247
255 266 78 333 276 242 275 300 331 349 317 311 323 306 307 321 308 308 305 316 350 332 327 314 289 288 294 257 276 240 232 219 273 279 265 293 292 354 199 200 216 152 155 108 342
302 272 70 328 262 279 264 6 334 279 262 270 291 301 294 321 309 298 299 323 329 328 309 309 292 287 286 289 215 239 257 234 244 246 254 255 277 297 287 200 187 119 141 62 334
315 291 119 290 307 329 314 300 242 294 309 303 280 299 301 292 296 288 305 313 311 311 329 344 294 308 289 51 13 339 310 240 294 289 265 286 271 301 111 115 124 138 90 331 343
296 317 89 128 107 310 330 308 292 162 286 284 282 283 301 295 281 280 292 317 319 309 299 277 270 260 276 294 175 219 251 287 236 252 268 247 255 265 292 133 151 161 356 334 315
322 18 11 315 330 324 296 295 288 295 288 297 289 267 286 305 312 287 306 313 308 296 282 237 264 274 279 285 292 290 279 257 255 264 272 292 297 268 263 302 316 352 328 301 306
337 336 352 288 289 281 287 285 311 302 322 302 287 310 308 279 273 286 295 294 300 301 294 295 274 274 283 290 287 281 271 253 257 266 270 260 270 279 237 256 287 293 285 295 309
13 319 325 293 277 282 284 319 322 330 299 283 298 281 290 296 297 279 277 284 273 251 285 287 280 284 266 317 320 292 266 270 275 261 276 263 274 282 278 272 278 281 278 285 287